Terug naar catalogus

O3B FM5

ActiefCommunicatieMEO
NORAD 39188·PAYLOAD·🇱🇺 Luxembourg

Gelanceerd Jun 25, 2013 vanaf Guiana Space Centre

Loading…

Volgende Passages (komende 24 uur)

TLE

VersSource: CelesTrak SupGP

Epoch: Sep 13, 2026, 13:00 UTC

1 39188C 13031A   26256.54166667  .00000000  00000+0  00000+0 0  2563
2 39188   0.0824 318.4735 0002492 200.2757 111.5609  5.00115786    13

Volg O3B FM5 in realtime met AllMySat

Download on the App Store